• In Hungary
  • List of Countries
  • For 7 days
  • Water Temperature
  • Satellite Maps
  • Weather Map
  • News
  • Weather Widgets
  • user-avatar
    Login

    Hourly Weather Chaschino

    Today, 21 July, Saturday

    Time Temperature Precipitation Wind Pressure Humidity
    00:00 +19°C° 0 mm 2 mps 740 mmHg 93%
    01:00 +19°C° 0 mm 2 mps 740 mmHg 93%
    02:00 +19°C° 0 mm 1 mps 740 mmHg 93%
    03:00 +19°C° 0 mm 1 mps 740 mmHg 94%
    04:00 +20°C° 0 mm 1 mps 740 mmHg 93%
    05:00 +19°C° 0 mm 2 mps 740 mmHg 92%
    06:00 +19°C° 0 mm 2 mps 740 mmHg 91%
    07:00 +21°C° 0 mm 2 mps 740 mmHg 86%
    08:00 +23°C° 0 mm 2 mps 740 mmHg 81%
    09:00 +25°C° 0 mm 2 mps 741 mmHg 76%
    10:00 +25°C° 0.5 mm 2 mps 740 mmHg 73%
    11:00 +26°C° 0.5 mm 2 mps 740 mmHg 71%
    12:00 +27°C° 0.5 mm 2 mps 740 mmHg 68%
    13:00 +28°C° 0.4 mm 2 mps 740 mmHg 66%
    14:00 +28°C° 0.4 mm 2 mps 740 mmHg 65%
    15:00 +28°C° 0.4 mm 2 mps 740 mmHg 64%
    16:00 +28°C° 0.6 mm 2 mps 740 mmHg 66%
    17:00 +28°C° 0.6 mm 2 mps 740 mmHg 69%
    18:00 +28°C° 0.6 mm 2 mps 740 mmHg 71%
    19:00 +26°C° 0.5 mm 2 mps 740 mmHg 77%
    20:00 +24°C° 0.5 mm 2 mps 740 mmHg 82%
    21:00 +23°C° 0.5 mm 2 mps 740 mmHg 88%
    22:00 +23°C° 0 mm 2 mps 740 mmHg 89%
    23:00 +21°C° 0 mm 2 mps 740 mmHg 91%

    Tomorrow, 22 July, Sunday

    Time Temperature Precipitation Wind Pressure Humidity
    00:00 +21°C° 0 mm 2 mps 741 mmHg 93%
    01:00 +20°C° 0 mm 2 mps 741 mmHg 93%
    02:00 +20°C° 0 mm 2 mps 741 mmHg 94%
    03:00 +20°C° 0 mm 2 mps 741 mmHg 95%
    04:00 +20°C° 0 mm 2 mps 741 mmHg 94%
    05:00 +20°C° 0 mm 2 mps 741 mmHg 93%
    06:00 +21°C° 0 mm 2 mps 741 mmHg 92%
    07:00 +23°C° 0.3 mm 2 mps 741 mmHg 89%
    08:00 +24°C° 0.3 mm 3 mps 741 mmHg 86%
    09:00 +25°C° 0.3 mm 4 mps 741 mmHg 83%
    10:00 +25°C° 1 mm 4 mps 741 mmHg 80%
    11:00 +26°C° 1 mm 4 mps 741 mmHg 78%
    12:00 +27°C° 1 mm 4 mps 741 mmHg 75%
    13:00 +26°C° 1.4 mm 4 mps 741 mmHg 77%
    14:00 +26°C° 1.4 mm 4 mps 741 mmHg 78%
    15:00 +26°C° 1.4 mm 4 mps 741 mmHg 80%
    16:00 +25°C° 0.6 mm 4 mps 741 mmHg 82%
    17:00 +25°C° 0.6 mm 5 mps 741 mmHg 84%
    18:00 +23°C° 0.6 mm 5 mps 741 mmHg 86%
    19:00 +22°C° 0.2 mm 5 mps 742 mmHg 88%
    20:00 +21°C° 0.2 mm 4 mps 742 mmHg 90%
    21:00 +20°C° 0.2 mm 4 mps 742 mmHg 92%
    22:00 +20°C° 0.5 mm 4 mps 742 mmHg 93%
    23:00 +20°C° 0.5 mm 4 mps 742 mmHg 94%

    Day after tomorrow, 23 July, Monday

    Time Temperature Precipitation Wind Pressure Humidity
    00:00 +19°C° 0.5 mm 5 mps 742 mmHg 95%
    01:00 +19°C° 0.1 mm 4 mps 742 mmHg 95%
    02:00 +19°C° 0.1 mm 4 mps 742 mmHg 96%
    03:00 +18°C° 0.1 mm 4 mps 742 mmHg 97%
    04:00 +19°C° 0.1 mm 4 mps 742 mmHg 96%
    05:00 +19°C° 0.1 mm 4 mps 742 mmHg 96%
    06:00 +19°C° 0.1 mm 4 mps 742 mmHg 95%
    07:00 +20°C° 0.1 mm 4 mps 742 mmHg 92%
    08:00 +21°C° 0.1 mm 4 mps 742 mmHg 89%
    09:00 +22°C° 0.1 mm 4 mps 742 mmHg 87%
    10:00 +23°C° 1.3 mm 4 mps 742 mmHg 83%
    11:00 +25°C° 1.3 mm 4 mps 742 mmHg 79%
    12:00 +27°C° 1.3 mm 4 mps 742 mmHg 75%
    13:00 +27°C° 1 mm 3 mps 742 mmHg 72%
    14:00 +28°C° 1 mm 3 mps 742 mmHg 70%
    15:00 +28°C° 1 mm 3 mps 742 mmHg 68%
    16:00 +28°C° 0.9 mm 3 mps 742 mmHg 72%
    17:00 +27°C° 0.9 mm 3 mps 742 mmHg 76%
    18:00 +26°C° 0.9 mm 3 mps 742 mmHg 80%
    19:00 +25°C° 0.1 mm 3 mps 742 mmHg 82%
    20:00 +24°C° 0.1 mm 3 mps 742 mmHg 85%
    21:00 +22°C° 0.1 mm 3 mps 743 mmHg 87%
    22:00 +22°C° 0 mm 3 mps 743 mmHg 88%
    23:00 +21°C° 0 mm 3 mps 743 mmHg 89%

    24 July, Tuesday

    Time Temperature Precipitation Wind Pressure Humidity
    00:00 +21°C° 0 mm 2 mps 743 mmHg 90%
    01:00 +21°C° 0 mm 2 mps 743 mmHg 91%
    02:00 +20°C° 0 mm 2 mps 743 mmHg 92%
    03:00 +20°C° 0 mm 2 mps 743 mmHg 93%
    04:00 +20°C° 0 mm 2 mps 743 mmHg 92%
    05:00 +20°C° 0 mm 2 mps 743 mmHg 91%
    06:00 +21°C° 0 mm 2 mps 743 mmHg 90%
    07:00 +22°C° 0.1 mm 3 mps 744 mmHg 86%
    08:00 +24°C° 0.1 mm 3 mps 744 mmHg 82%
    09:00 +26°C° 0.1 mm 3 mps 744 mmHg 78%
    10:00 +26°C° 1.2 mm 4 mps 744 mmHg 76%
    11:00 +26°C° 1.2 mm 4 mps 744 mmHg 73%
    12:00 +27°C° 1.2 mm 5 mps 745 mmHg 71%
    13:00 +26°C° 0.8 mm 5 mps 745 mmHg 73%
    14:00 +25°C° 0.8 mm 5 mps 745 mmHg 76%
    15:00 +23°C° 0.8 mm 5 mps 745 mmHg 78%
    16:00 +22°C° 0.8 mm 4 mps 745 mmHg 82%
    17:00 +21°C° 0.8 mm 4 mps 745 mmHg 85%
    18:00 +19°C° 0.8 mm 3 mps 745 mmHg 89%
    19:00 +19°C° 1.5 mm 3 mps 745 mmHg 90%
    20:00 +19°C° 1.5 mm 3 mps 745 mmHg 91%
    21:00 +18°C° 1.5 mm 3 mps 745 mmHg 92%
    22:00 +19°C° 1.4 mm 4 mps 745 mmHg 92%
    23:00 +19°C° 1.4 mm 4 mps 745 mmHg 93%

    25 July, Wednesday

    Time Temperature Precipitation Wind Pressure Humidity
    00:00 +20°C° 1.4 mm 4 mps 745 mmHg 93%
    01:00 +19°C° 0.5 mm 4 mps 745 mmHg 93%
    02:00 +19°C° 0.5 mm 5 mps 745 mmHg 93%
    03:00 +19°C° 0.5 mm 5 mps 745 mmHg 93%
    04:00 +19°C° 0.1 mm 4 mps 745 mmHg 93%
    05:00 +18°C° 0.1 mm 4 mps 746 mmHg 93%
    06:00 +18°C° 0.1 mm 4 mps 746 mmHg 92%
    07:00 +20°C° 0 mm 4 mps 746 mmHg 89%
    08:00 +21°C° 0 mm 4 mps 747 mmHg 86%
    09:00 +22°C° 0 mm 4 mps 747 mmHg 83%
    10:00 +23°C° 0 mm 4 mps 747 mmHg 79%
    11:00 +26°C° 0 mm 3 mps 747 mmHg 74%
    12:00 +27°C° 0 mm 3 mps 747 mmHg 69%
    13:00 +28°C° 0.2 mm 3 mps 747 mmHg 67%
    14:00 +28°C° 0.2 mm 3 mps 747 mmHg 65%
    15:00 +29°C° 0.2 mm 3 mps 747 mmHg 63%
    16:00 +28°C° 1.1 mm 3 mps 747 mmHg 68%
    17:00 +28°C° 1.1 mm 3 mps 747 mmHg 73%
    18:00 +27°C° 1.1 mm 3 mps 747 mmHg 78%
    19:00 +26°C° 0.4 mm 3 mps 747 mmHg 80%
    20:00 +25°C° 0.4 mm 3 mps 748 mmHg 83%
    21:00 +22°C° 0.4 mm 3 mps 748 mmHg 85%
    22:00 +21°C° 0.3 mm 3 mps 748 mmHg 84%
    23:00 +20°C° 0.3 mm 4 mps 748 mmHg 84%

    26 July, Thursday

    Time Temperature Precipitation Wind Pressure Humidity
    00:00 +20°C° 0.3 mm 4 mps 748 mmHg 83%
    01:00 +19°C° 0.3 mm 4 mps 748 mmHg 83%
    02:00 +18°C° 0.3 mm 4 mps 748 mmHg 82%
    03:00 +18°C° 0.3 mm 4 mps 748 mmHg 82%
    04:00 +18°C° 0 mm 4 mps 748 mmHg 81%
    05:00 +18°C° 0 mm 4 mps 748 mmHg 80%
    06:00 +18°C° 0 mm 4 mps 749 mmHg 79%
    07:00 +20°C° 0 mm 4 mps 749 mmHg 75%
    08:00 +22°C° 0 mm 5 mps 749 mmHg 71%
    09:00 +25°C° 0 mm 5 mps 749 mmHg 67%
    10:00 +26°C° 0 mm 5 mps 749 mmHg 64%
    11:00 +28°C° 0 mm 5 mps 749 mmHg 61%
    12:00 +29°C° 0 mm 5 mps 749 mmHg 58%
    13:00 +30°C° 0 mm 5 mps 749 mmHg 57%
    14:00 +30°C° 0 mm 6 mps 749 mmHg 56%
    15:00 +32°C° 0 mm 6 mps 749 mmHg 55%
    16:00 +32°C° 0 mm 5 mps 749 mmHg 58%
    17:00 +30°C° 0 mm 5 mps 749 mmHg 62%
    18:00 +30°C° 0 mm 4 mps 749 mmHg 66%
    19:00 +28°C° 0 mm 4 mps 749 mmHg 67%
    20:00 +27°C° 0 mm 4 mps 749 mmHg 68%
    21:00 +25°C° 0 mm 5 mps 749 mmHg 70%
    22:00 +25°C° 0 mm 5 mps 750 mmHg 67%
    23:00 +23°C° 0 mm 5 mps 750 mmHg 64%
    Show more